2020-02-17 00:08:08 r, 00.00m,0000562873Hz,0000000000c,0000000.000s, 015.1C,00002195
2020-02-17 00:18:08 r, 00.00m,0000562783Hz,0000000000c,0000000.000s, 014.8C,00002195
2020-02-17 00:28:08 r, 00.00m,0000562567Hz,0000000000c,0000000.000s, 013.8C,00002195
2020-02-17 00:38:08 r, 00.00m,0000562454Hz,0000000000c,0000000.000s, 012.5C,00002195
2020-02-17 00:48:08 r, 00.00m,0000562287Hz,0000000000c,0000000.000s, 011.6C,00002195
2020-02-17 00:58:08 r, 00.00m,0000562242Hz,0000000000c,0000000.000s, 011.2C,00002195
2020-02-17 01:08:08 r, 00.00m,0000562393Hz,0000000000c,0000000.000s, 011.6C,00002195
2020-02-17 01:18:08 r, 00.00m,0000562273Hz,0000000000c,0000000.000s, 011.2C,00002195
2020-02-17 01:28:08 r, 00.00m,0000562281Hz,0000000000c,0000000.000s, 010.9C,00002195
2020-02-17 01:38:08 r, 00.00m,0000562264Hz,0000000000c,0000000.000s, 010.6C,00002195
2020-02-17 01:48:08 r, 00.00m,0000562217Hz,0000000000c,0000000.000s, 010.3C,00002195
2020-02-17 01:58:08 r, 00.00m,0000562090Hz,0000000000c,0000000.000s, 010.3C,00002195
2020-02-17 02:08:08 r, 00.00m,0000562048Hz,0000000000c,0000000.000s, 009.6C,00002195
2020-02-17 02:18:08 r, 00.00m,0000511126Hz,0000000000c,0000000.000s, 009.3C,00002195
2020-02-17 02:28:08 r, 06.17m,0000304780Hz,0000000000c,0000000.000s, 009.0C,00002195
2020-02-17 02:38:08 r, 06.84m,0000164665Hz,0000000000c,0000000.000s, 008.7C,00002195
2020-02-17 02:48:08 r, 07.65m,0000077469Hz,0000000000c,0000000.000s, 008.3C,00002195
2020-02-17 02:58:08 r, 08.86m,0000025425Hz,0000000000c,0000000.000s, 008.0C,00002195
2020-02-17 03:08:08 r, 10.59m,0000005210Hz,0000000000c,0000000.000s, 008.0C,00002195
2020-02-17 03:18:08 r, 12.49m,0000000900Hz,0000000000c,0000000.000s, 007.7C,00002195
2020-02-17 03:28:08 r, 13.99m,0000000224Hz,0000000000c,0000000.000s, 007.7C,00002195
2020-02-17 03:38:08 r, 14.55m,0000000135Hz,0000000000c,0000000.000s, 007.7C,00002195
2020-02-17 03:48:08 r, 14.55m,0000000135Hz,0000000000c,0000000.000s, 007.7C,00002195
2020-02-17 03:58:08 r, 14.72m,0000000115Hz,0000004023c,0000000.009s, 007.7C,00002195
2020-02-17 04:08:08 r, 14.86m,0000000100Hz,0000004599c,0000000.010s, 007.7C,00002195
2020-02-17 04:18:08 r, 14.77m,0000000109Hz,0000004199c,0000000.009s, 007.7C,00002195
2020-02-17 04:28:08 r, 14.46m,0000000147Hz,0000000000c,0000000.000s, 007.4C,00002195
2020-02-17 04:38:08 r, 14.97m,0000000091Hz,0000005056c,0000000.011s, 007.7C,00002195
2020-02-17 04:48:08 r, 15.10m,0000000081Hz,0000005687c,0000000.012s, 007.7C,00002195
2020-02-17 04:58:08 r, 15.01m,0000000087Hz,0000005251c,0000000.011s, 007.7C,00002195
2020-02-17 05:08:08 r, 15.40m,0000000061Hz,0000007513c,0000000.016s, 007.7C,00002195
2020-02-17 05:18:08 r, 16.23m,0000000028Hz,0000016153c,0000000.035s, 007.4C,00002195
2020-02-17 05:28:08 r, 16.78m,0000000018Hz,0000026778c,0000000.058s, 007.4C,00002195
2020-02-17 05:38:08 r, 16.63m,0000000019Hz,0000023355c,0000000.051s, 007.0C,00002195
2020-02-17 05:48:08 r, 16.43m,0000000024Hz,0000019491c,0000000.042s, 007.0C,00002195
2020-02-17 05:58:08 r, 16.12m,0000000031Hz,0000014590c,0000000.032s, 007.0C,00002195
2020-02-17 06:08:08 r, 15.54m,0000000054Hz,0000008622c,0000000.019s, 007.0C,00002195
2020-02-17 06:18:08 r, 16.90m,0000000015Hz,0000029854c,0000000.065s, 007.0C,00002195
2020-02-17 06:28:08 r, 16.70m,0000000019Hz,0000024890c,0000000.054s, 007.0C,00002195
2020-02-17 06:38:08 r, 16.59m,0000000020Hz,0000022486c,0000000.049s, 006.7C,00002195
2020-02-17 06:48:08 r, 16.89m,0000000016Hz,0000029721c,0000000.064s, 006.7C,00002195
2020-02-17 06:58:08 r, 15.71m,0000000046Hz,0000010096c,0000000.022s, 006.4C,00002195
2020-02-17 07:08:08 r, 15.17m,0000000076Hz,0000006107c,0000000.013s, 006.4C,00002195
2020-02-17 07:18:08 r, 14.77m,0000000109Hz,0000004235c,0000000.009s, 006.7C,00002195
2020-02-17 07:28:08 r, 14.64m,0000000123Hz,0000003739c,0000000.008s, 006.7C,00002195
2020-02-17 07:38:08 r, 14.93m,0000000094Hz,0000004898c,0000000.011s, 006.7C,00002195
2020-02-17 07:48:08 r, 15.14m,0000000077Hz,0000005939c,0000000.013s, 006.7C,00002195
2020-02-17 07:58:08 r, 14.78m,0000000109Hz,0000004274c,0000000.009s, 006.7C,00002195
2020-02-17 08:08:08 r, 14.67m,0000000120Hz,0000003825c,0000000.008s, 006.7C,00002195
2020-02-17 08:18:08 r, 14.62m,0000000126Hz,0000003657c,0000000.008s, 006.7C,00002195
2020-02-17 08:28:08 r, 14.79m,0000000108Hz,0000004313c,0000000.009s, 007.0C,00002195
2020-02-17 08:38:08 r, 14.75m,0000000110Hz,0000004136c,0000000.009s, 007.0C,00002195
2020-02-17 08:48:08 r, 14.71m,0000000115Hz,0000003992c,0000000.009s, 007.4C,00002195
2020-02-17 08:58:08 r, 14.51m,0000000140Hz,0000000000c,0000000.000s, 007.4C,00002195
2020-02-17 09:08:08 r, 14.46m,0000000146Hz,0000000000c,0000000.000s, 007.4C,00002195
2020-02-17 09:18:08 r, 14.44m,0000000149Hz,0000000000c,0000000.000s, 007.4C,00002195
2020-02-17 09:28:08 r, 14.25m,0000000177Hz,0000000000c,0000000.000s, 007.4C,00002195
2020-02-17 09:38:08 r, 14.21m,0000000184Hz,0000000000c,0000000.000s, 007.4C,00002195
2020-02-17 09:48:08 r, 14.14m,0000000196Hz,0000000000c,0000000.000s, 007.4C,00002195
2020-02-17 09:58:08 r, 14.21m,0000000184Hz,0000000000c,0000000.000s, 007.4C,00002195
2020-02-17 10:08:08 r, 14.21m,0000000183Hz,0000000000c,0000000.000s, 007.4C,00002195
2020-02-17 10:18:08 r, 14.26m,0000000175Hz,0000000000c,0000000.000s, 007.4C,00002195
2020-02-17 10:28:08 r, 14.27m,0000000174Hz,0000000000c,0000000.000s, 007.4C,00002195
2020-02-17 10:38:08 r, 14.35m,0000000162Hz,0000000000c,0000000.000s, 007.4C,00002195
2020-02-17 10:48:08 r, 14.37m,0000000159Hz,0000000000c,0000000.000s, 007.4C,00002195
2020-02-17 10:58:08 r, 14.17m,0000000190Hz,0000000000c,0000000.000s, 007.0C,00002195
2020-02-17 11:08:08 r, 14.12m,0000000199Hz,0000000000c,0000000.000s, 007.0C,00002195
2020-02-17 11:18:08 r, 14.12m,0000000200Hz,0000000000c,0000000.000s, 007.0C,00002195
2020-02-17 11:28:08 r, 14.07m,0000000210Hz,0000000000c,0000000.000s, 007.0C,00002195
2020-02-17 11:38:08 r, 14.03m,0000000217Hz,0000000000c,0000000.000s, 007.0C,00002195
2020-02-17 11:48:08 r, 14.12m,0000000199Hz,0000000000c,0000000.000s, 007.0C,00002195
2020-02-17 11:58:08 r, 14.29m,0000000171Hz,0000000000c,0000000.000s, 007.0C,00002195
2020-02-17 12:08:08 r, 14.33m,0000000164Hz,0000000000c,0000000.000s, 007.0C,00002195
2020-02-17 12:18:08 r, 14.19m,0000000187Hz,0000000000c,0000000.000s, 007.0C,00002195
2020-02-17 12:28:08 r, 14.38m,0000000158Hz,0000000000c,0000000.000s, 007.0C,00002195
2020-02-17 12:38:08 r, 14.56m,0000000134Hz,0000000000c,0000000.000s, 006.7C,00002195
2020-02-17 12:48:08 r, 14.67m,0000000119Hz,0000003861c,0000000.008s, 006.1C,00002195
2020-02-17 12:58:08 r, 14.62m,0000000124Hz,0000003660c,0000000.008s, 006.1C,00002195
2020-02-17 13:08:08 r, 14.67m,0000000120Hz,0000003828c,0000000.008s, 005.8C,00002195
2020-02-17 13:18:08 r, 14.71m,0000000116Hz,0000003974c,0000000.009s, 005.4C,00002195
2020-02-17 13:28:08 r, 14.70m,0000000117Hz,0000003937c,0000000.009s, 005.1C,00002195
2020-02-17 13:38:08 r, 14.63m,0000000123Hz,0000003708c,0000000.008s, 005.1C,00002195
2020-02-17 13:48:08 r, 14.56m,0000000133Hz,0000000000c,0000000.000s, 005.1C,00002195
2020-02-17 13:58:08 r, 14.57m,0000000132Hz,0000000000c,0000000.000s, 005.1C,00002195
2020-02-17 14:08:08 r, 14.66m,0000000120Hz,0000003810c,0000000.008s, 004.8C,00002195
2020-02-17 14:18:08 r, 14.88m,0000000098Hz,0000004694c,0000000.010s, 004.8C,00002195
2020-02-17 14:28:09 r, 15.00m,0000000088Hz,0000005187c,0000000.011s, 004.8C,00002195
2020-02-17 14:38:08 r, 14.84m,0000000101Hz,0000004509c,0000000.010s, 004.8C,00002195
2020-02-17 14:48:09 r, 15.24m,0000000070Hz,0000006489c,0000000.014s, 004.8C,00002195
2020-02-17 14:58:09 r, 15.60m,0000000051Hz,0000009053c,0000000.020s, 004.8C,00002195
2020-02-17 15:08:08 r, 16.20m,0000000029Hz,0000015790c,0000000.034s, 004.5C,00002195
2020-02-17 15:18:09 r, 16.95m,0000000014Hz,0000031363c,0000000.068s, 004.1C,00002195
2020-02-17 15:28:08 r, 16.66m,0000000019Hz,0000023954c,0000000.052s, 003.8C,00002195
2020-02-17 15:38:09 r, 14.70m,0000000116Hz,0000003959c,0000000.009s, 003.5C,00002195
2020-02-17 15:48:09 r, 14.43m,0000000151Hz,0000000000c,0000000.000s, 003.5C,00002195
2020-02-17 15:58:08 r, 13.56m,0000000336Hz,0000000000c,0000000.000s, 003.8C,00002195
2020-02-17 16:08:09 r, 11.92m,0000001526Hz,0000000000c,0000000.000s, 003.5C,00002195
2020-02-17 16:18:08 r, 09.93m,0000009483Hz,0000000000c,0000000.000s, 003.5C,00002195
2020-02-17 16:28:09 r, 08.45m,0000037195Hz,0000000000c,0000000.000s, 002.9C,00002195
2020-02-17 16:38:09 r, 07.39m,0000098959Hz,0000000000c,0000000.000s, 002.9C,00002195
2020-02-17 16:48:08 r, 06.72m,0000182023Hz,0000000000c,0000000.000s, 002.2C,00002195
2020-02-17 16:58:09 r, 06.24m,0000283075Hz,0000000000c,0000000.000s, 001.9C,00002195
2020-02-17 17:08:08 r, 05.90m,0000387221Hz,0000000000c,0000000.000s, 001.6C,00002195
2020-02-17 17:18:09 r, 00.00m,0000491740Hz,0000000000c,0000000.000s, 001.2C,00002195
2020-02-17 17:28:09 r, 00.00m,0000560871Hz,0000000000c,0000000.000s, 000.9C,00002195
2020-02-17 17:38:08 r, 00.00m,0000560775Hz,0000000000c,0000000.000s, 000.9C,00002195
2020-02-17 17:48:09 r, 00.00m,0000560862Hz,0000000000c,0000000.000s, 001.2C,00002195
2020-02-17 17:58:08 r, 00.00m,0000561018Hz,0000000000c,0000000.000s, 001.9C,00002195
2020-02-17 18:08:09 r, 00.00m,0000561130Hz,0000000000c,0000000.000s, 002.9C,00002195
2020-02-17 18:18:09 r, 00.00m,0000561243Hz,0000000000c,0000000.000s, 003.2C,00002195
2020-02-17 18:28:08 r, 00.00m,0000561320Hz,0000000000c,0000000.000s, 003.5C,00002195
2020-02-17 18:38:09 r, 00.00m,0000561398Hz,0000000000c,0000000.000s, 004.1C,00002195
2020-02-17 18:48:08 r, 00.00m,0000561431Hz,0000000000c,0000000.000s, 004.8C,00002195
2020-02-17 18:58:09 r, 00.00m,0000561438Hz,0000000000c,0000000.000s, 005.1C,00002195
2020-02-17 19:08:08 r, 00.00m,0000561517Hz,0000000000c,0000000.000s, 005.1C,00002195
2020-02-17 19:18:09 r, 00.00m,0000561511Hz,0000000000c,0000000.000s, 005.4C,00002195
2020-02-17 19:28:09 r, 00.00m,0000561615Hz,0000000000c,0000000.000s, 005.8C,00002195
2020-02-17 19:38:08 r, 00.00m,0000561626Hz,0000000000c,0000000.000s, 006.1C,00002195
2020-02-17 19:48:09 r, 00.00m,0000561781Hz,0000000000c,0000000.000s, 006.1C,00002195
2020-02-17 19:58:09 r, 00.00m,0000561690Hz,0000000000c,0000000.000s, 006.4C,00002195
2020-02-17 20:08:09 r, 00.00m,0000561827Hz,0000000000c,0000000.000s, 006.7C,00002195
2020-02-17 20:18:09 r, 00.00m,0000561857Hz,0000000000c,0000000.000s, 006.7C,00002195
2020-02-17 20:28:09 r, 00.00m,0000561888Hz,0000000000c,0000000.000s, 007.0C,00002195
2020-02-17 20:38:09 r, 00.00m,0000562004Hz,0000000000c,0000000.000s, 007.4C,00002195
2020-02-17 20:48:09 r, 00.00m,0000562028Hz,0000000000c,0000000.000s, 007.4C,00002195
2020-02-17 20:58:09 r, 00.00m,0000562128Hz,0000000000c,0000000.000s, 008.0C,00002195
2020-02-17 21:08:09 r, 00.00m,0000562149Hz,0000000000c,0000000.000s, 008.0C,00002195
2020-02-17 21:18:09 r, 00.00m,0000561923Hz,0000000000c,0000000.000s, 007.7C,00002195
2020-02-17 21:28:09 r, 00.00m,0000562038Hz,0000000000c,0000000.000s, 008.0C,00002195
2020-02-17 21:38:09 r, 00.00m,0000561973Hz,0000000000c,0000000.000s, 008.0C,00002195
2020-02-17 21:48:09 r, 00.00m,0000562019Hz,0000000000c,0000000.000s, 008.0C,00002195
2020-02-17 21:58:09 r, 00.00m,0000562117Hz,0000000000c,0000000.000s, 008.3C,00002195
2020-02-17 22:08:09 r, 00.00m,0000562160Hz,0000000000c,0000000.000s, 008.3C,00002195
2020-02-17 22:18:09 r, 00.00m,0000562154Hz,0000000000c,0000000.000s, 008.3C,00002195
2020-02-17 22:28:09 r, 00.00m,0000562051Hz,0000000000c,0000000.000s, 008.0C,00002195
2020-02-17 22:38:09 r, 00.00m,0000562070Hz,0000000000c,0000000.000s, 008.0C,00002195
2020-02-17 22:48:09 r, 00.00m,0000562066Hz,0000000000c,0000000.000s, 008.3C,00002195
2020-02-17 22:58:09 r, 00.00m,0000562019Hz,0000000000c,0000000.000s, 008.3C,00002195
2020-02-17 23:08:09 r, 00.00m,0000561986Hz,0000000000c,0000000.000s, 008.0C,00002195
2020-02-17 23:18:09 r, 00.00m,0000562100Hz,0000000000c,0000000.000s, 007.7C,00002195
2020-02-17 23:28:09 r, 00.00m,0000561938Hz,0000000000c,0000000.000s, 007.4C,00002195
2020-02-17 23:38:09 r, 00.00m,0000561858Hz,0000000000c,0000000.000s, 007.4C,00002195
2020-02-17 23:48:09 r, 00.00m,0000561777Hz,0000000000c,0000000.000s, 007.4C,00002195
2020-02-17 23:58:09 r, 00.00m,0000561834Hz,0000000000c,0000000.000s, 007.4C,00002195
